Location: Little Arabia
(41.4620°N, 81.7687°W)
Time: 20:25:03
(UTC+00:00)

Cosmos 292 Rocket - Pass Details

Date: 29 October 2020
Orbit: 673 x 695 km, 74.0° (Epoch: 03 December)

Event Time Altitude Azimuth Distance (km) Brightness Sun altitude
Rises 22:44:33 0° 200° (SSW) 3,022 7.6 -4.3°
Reaches altitude 10° 22:46:50 10° 202° (SSW) 2,115 6.8 -4.7°
Maximum altitude 22:51:37 81° 290° (WNW) 698 3.9 -5.6°
Drops below altitude 10° 22:56:27 10° 18° (NNE) 2,145 6.0 -6.5°
Sets 22:58:47 0° 19° (NNE) 3,069 6.8 -6.9°
